Flag for Germany Weather past 2 weeks in Kassel, Hesse, Germany

Now
46 °F

Light rain. Mostly cloudy.


Feels Like: 40 °F
Forecast: 37 / 42 °F
Wind: 14 mph from West

Location: Kassel / Calden

Current Time: Dec 19, 2014 at 4:55:41 PM

Latest Report: Dec 19, 2014 at 4:20 PM


Visibility: N/A

Pressure: 29.83 "Hg

Humidity: 87%

Dew point: 43 °F

Location of KasselLocation

Historic Weather in Kassel — Graph

°F

Kassel temperature yesterday

Maximum temperature yesterday: 55 °F (at 8:50 PM)
Minimum temperature yesterday: 46 °F (at 6:20 AM)
Average temperature yesterday: 51 °F

Past Weeks' High & Low Weather Summary

 TemperatureHumidityPressure
High55 °F (Dec 18, 8:50 PM)100% (Dec 4, 7:20 PM)30.36 "Hg (Dec 4, 7:20 PM)
Low32 °F (Dec 4, 3:20 PM)65% (Dec 14, 7:50 AM)29.42 "Hg (Dec 12, 1:50 PM)
Average39 °F86%29.92 "Hg
* Reported Dec 4 3:20 PM — Dec 19 3:50 PM, Kassel, Weather by CustomWeather, © 2014

Note: Actual official high and low records may vary slightly from our data, if they occured in-between our weather recording intervals... More about our weather records

Advertising

Kassel weather history for previous 24 hours

 ConditionsComfort  
Time TempWeatherWind HumidityBarometerVisibility
3:50 PM
Dec 19
48 °FLight rain. Mostly cloudy.20 mph87%29.83 "Hg6 mi
3:20 PM48 °FRain. Mostly cloudy.17 mph94%29.80 "Hg4 mi
2:50 PM50 °FRain. Broken clouds.15 mph88%29.77 "Hg5 mi
2:20 PM50 °FLight rain. More clouds than sun.20 mph88%29.74 "HgN/A
1:50 PM52 °FLight rain. Broken clouds.21 mph82%29.74 "HgN/A
1:20 PM52 °FLight rain. More clouds than sun.21 mph82%29.74 "HgN/A
12:50 PM52 °FLight rain. Broken clouds.21 mph82%29.77 "HgN/A
12:20 PM50 °FLight rain. More clouds than sun.21 mph88%29.77 "HgN/A
11:50 AM50 °FLight rain. Broken clouds.20 mph88%29.77 "HgN/A
11:20 AM50 °FLight rain. Cloudy.17 mph88%29.80 "HgN/A
10:50 AM50 °FLight rain. Cloudy.18 mph88%29.80 "HgN/A
10:20 AM50 °FLight rain. More clouds than sun.20 mph88%29.80 "HgN/A
9:50 AM50 °FLight rain. Mostly cloudy.18 mph88%29.80 "HgN/A
9:20 AM50 °FLight rain. Cloudy.20 mph88%29.77 "HgN/A
8:50 AM52 °FMostly cloudy.20 mph82%29.80 "HgN/A
8:20 AM52 °FPartly cloudy.20 mph82%29.80 "HgN/A
7:50 AM52 °FOvercast.22 mph82%29.80 "HgN/A
7:20 AM52 °FPartly cloudy.20 mph82%29.80 "HgN/A
6:50 AM52 °FMostly cloudy.21 mph82%29.80 "HgN/A
6:20 AM52 °FMostly cloudy.18 mph82%29.80 "HgN/A
5:50 AM52 °FPassing clouds.14 mph82%29.83 "HgN/A
9:50 PM
Dec 18
55 °FMostly cloudy.21 mph77%29.83 "HgN/A
9:20 PM55 °FMostly cloudy.18 mph77%29.83 "HgN/A
8:50 PM55 °FMostly cloudy.9 mph82%29.83 "HgN/A
8:20 PM54 °FMostly cloudy.14 mph88%29.83 "HgN/A
7:50 PM54 °FMostly cloudy.10 mph88%29.80 "HgN/A
7:20 PM54 °FMostly cloudy.13 mph82%29.80 "HgN/A
6:50 PM54 °FMostly cloudy.12 mph82%29.80 "HgN/A
6:20 PM54 °FMostly cloudy.13 mph82%29.80 "HgN/A
5:50 PM54 °FMostly cloudy.12 mph82%29.80 "HgN/A
5:20 PM52 °FMostly cloudy.10 mph88%29.80 "HgN/A
4:50 PM52 °FMostly cloudy.9 mph88%29.80 "HgN/A
4:20 PM52 °FMostly cloudy.10 mph88%29.80 "HgN/A
Weather by CustomWeather, © 2014

See weather overviewHow to use our weather pages